Хета

Россия / Красноярский край     71°33′52″N   99°39′29″E
темп.,
°C
ветер,
м/с
пор.,
м/с
влажн.,
%
обл.,
%
осадки,
мм/ч
давл.,
гПа
погр.,
м
9 марта, вт
вт901:00−29ююз239898 0.1 100341
04:00−31ююз119985 0.0 100119
07:00−32всв229986 0.0 99919
10:00−29св349853 0.0 99795
13:00−27св459775 0.1 994165
16:00−28ссв359899 0.0 995109
19:00−29с339899 0.1 99666
22:00−30сз2398100 0.1 99766
10 марта, ср
ср1001:00−30з3498100 0.1 999126
04:00−30зюз4798100 0.1 1001207
07:00−31зюз5997100 0.1 1002286
10:00−30зюз61194100 0.1 1002408
13:00−29зюз71193100 0.1 1002496
16:00−28з71390100 0.0 1004589
19:00−29зюз71493100 0.0 1004502
22:00−29зюз81592100 0.0 1004530
11 марта, чт
чт1101:00−29зюз91690100 0.1 1003596
04:00−29зюз101887100 0.0 1003621
07:00−28зюз101790100 0.1 1002689
10:00−27зюз111792100 0.1 1001749
13:00−26зюз101792100 0.3 1000769
16:00−26зюз101694100 0.2 1001768
19:00−26зюз91794100 0.4 1001735
22:00−26зюз81594100 0.2 1001603
12 марта, пт
пт1201:00−27зюз81492100 0.3 1001492
04:00−29зюз71388100 0.0 1001380
07:00−30юз61185100 0.0 1000236
10:00−28ю467987 0.0 998109
13:00−23ю487670 0.0 994296
16:00−26ю598154 0.0 992184
19:00−29ю597371 0.0 989111
22:00−26ю577199 0.0 987123
13 марта, сб
сб1301:00−24ююз4676100 0.0 986107
04:00−25зюз2383100 0.0 98520
07:00−23зюз41097100 0.1 985410
10:00−23з61490100 0.1 985741
13:00−22з8118499 0.1 9851112
16:00−23зюз61088100 0.0 9871175
19:00−26з61192100 0.1 990786
22:00−33з61194100 0.0 993284